Weather History for Ravenna, OH

Change the Weather History Date:

Friday, June 28, 2013

  Actual Average (KCAK) Record (KCAK)
Temperature  
Mean Temperature 70 °F 71 °F  
Max Temperature 78 °F 81 °F 97 °F (1971)
Min Temperature 62 °F 61 °F 47 °F (1950)
Degree Days  
Heating Degree Days 0 1  
Month to date heating degree days 51  
Since 1 June heating degree days 51  
Since 1 July heating degree days 6152  
Cooling Degree Days 6 6  
Month to date cooling degree days 121  
Year to date cooling degree days 163  
Since 1 June cooling degree days 121  
Growing Degree Days 20 (Base 50)    
Moisture  
Dew Point 64 °F    
Average Humidity 86    
Maximum Humidity 100    
Minimum Humidity 54    
Precipitation  
Precipitation 0.08 in 0.13 in 2.71 in (1957)
Month to date precipitation 3.58  
Year to date precipitation 19.31  
Snow  
Snow 0.00 in 0.00 in - ()
Month to date snowfall 0.0  
Since 1 June snowfall 0.0  
Since 1 July snowfall 47.5  
Snow Depth -    
Sea Level Pressure  
Sea Level Pressure 29.59 in    
Wind  
Wind Speed 4 mph (West)    
Max Wind Speed 13 mph    
Max Gust Speed 20 mph    
Visibility 8 miles    
Events Rain    
T = Trace of Precipitation, MM = Missing Value Source: NWS Daily Summary

Daily Weather History Graph

Daily Weather History Graph

Search for Another Location

Airport:

Trip Planner

Search our weather history database for the weather conditions in past years. The results will help you decide how hot, cold, wet, or windy it might be!

Date:

Astronomy

Jun. 28, 2013 Rise Set
Actual Time 5:54 AM EDT 9:01 PM EDT
Civil Twilight 5:20 AM EDT 9:35 PM EDT
Nautical Twilight 4:37 AM EDT 10:18 PM EDT
Astronomical Twilight 3:46 AM EDT 11:09 PM EDT
Moon No Moon Rise 12:04 PM EDT (6/28)
Length of Visible Light 16h 14m
Length of Day
15h 07m
Waning Gibbous, 66% of the Moon is Illuminated
Jun 28
Waning Gibbous
Jun 30
Last Quarter
Jul 8
New
Jul 15
First Quarter
Jul 22
Full

Hourly Weather History & Observations

Time (EDT) Temp. Dew Point Humidity Pressure Visibility Wind Dir Wind Speed Gust Speed Precip Events Conditions
12:05 AM 68.0 °F 68.0 °F 100% 29.67 in 4.0 mi East 3.5 mph - N/A   Mostly Cloudy
12:25 AM 66.2 °F 66.2 °F 100% 29.67 in 7.0 mi NE 4.6 mph - N/A   Mostly Cloudy
12:45 AM 66.2 °F 66.2 °F 100% 29.67 in 7.0 mi East 3.5 mph - N/A   Mostly Cloudy
1:05 AM 66.2 °F 66.2 °F 100% 29.66 in 7.0 mi Calm Calm - N/A   Mostly Cloudy
1:25 AM 66.2 °F 66.2 °F 100% 29.66 in 10.0 mi East 3.5 mph - N/A   Mostly Cloudy
1:45 AM 66.2 °F 66.2 °F 100% 29.66 in 7.0 mi Calm Calm - N/A   Scattered Clouds
2:05 AM 64.4 °F 64.4 °F 100% 29.65 in 4.0 mi Calm Calm - N/A   Scattered Clouds
2:25 AM 64.4 °F 64.4 °F 100% 29.65 in 1.5 mi Calm Calm - N/A   Unknown
2:45 AM 64.4 °F 64.4 °F 100% 29.66 in 1.0 mi Calm Calm - N/A   Unknown
3:05 AM 66.2 °F 66.2 °F 100% 29.66 in 5.0 mi Calm Calm - N/A   Mostly Cloudy
3:25 AM 64.4 °F 64.4 °F 100% 29.65 in 7.0 mi Calm Calm - N/A   Scattered Clouds
3:45 AM 64.4 °F 64.4 °F 100% 29.64 in 4.0 mi Calm Calm - N/A   Mostly Cloudy
4:25 AM 64.4 °F 64.4 °F 100% 29.63 in 0.8 mi Calm Calm - N/A   Overcast
4:45 AM 66.2 °F 66.2 °F 100% 29.63 in 0.5 mi Calm Calm - N/A   Overcast
5:05 AM 66.2 °F 66.2 °F 100% 29.62 in 0.5 mi Calm Calm - N/A   Overcast
5:25 AM 66.2 °F 66.2 °F 100% 29.63 in 1.8 mi Calm Calm - N/A   Overcast
5:45 AM 66.2 °F 66.2 °F 100% 29.63 in 0.8 mi Calm Calm - N/A   Overcast
6:05 AM 66.2 °F 66.2 °F 100% 29.63 in 1.5 mi WSW 3.5 mph - N/A   Overcast
6:25 AM 64.4 °F 64.4 °F 100% 29.61 in 2.0 mi Calm Calm - N/A   Overcast
6:45 AM 66.2 °F 66.2 °F 100% 29.61 in 0.2 mi Calm Calm - N/A   Overcast
7:25 AM 66.2 °F 66.2 °F 100% 29.61 in 0.2 mi Calm Calm - N/A   Overcast
7:45 AM 66.2 °F 66.2 °F 100% 29.61 in 1.5 mi WSW 4.6 mph - N/A   Overcast
8:05 AM 66.2 °F 66.2 °F 100% 29.61 in 4.0 mi WSW 3.5 mph - N/A   Overcast
8:25 AM 66.2 °F 66.2 °F 100% 29.61 in 5.0 mi WNW 3.5 mph - N/A   Overcast
8:54 AM 66.2 °F 66.2 °F 100% 29.61 in 7.0 mi Calm Calm - N/A   Overcast
8:55 AM 66.2 °F 66.2 °F 100% 29.61 in 7.0 mi Calm Calm - N/A   Overcast
9:13 AM 67.3 °F 67.5 °F 100% 29.60 in 10.0 mi Calm Calm - N/A   Overcast
9:33 AM 69.1 °F 68.9 °F 99% 29.60 in 10.0 mi WSW 4.6 mph - N/A   Overcast
9:54 AM 69.8 °F 65.7 °F 87% 29.59 in 10.0 mi West 4.6 mph - N/A   Overcast
10:14 AM 70.5 °F 65.7 °F 85% 29.59 in 10.0 mi WNW 5.8 mph - N/A   Mostly Cloudy
10:33 AM 71.8 °F 65.3 °F 80% 29.59 in 10.0 mi WNW 8.1 mph - N/A   Mostly Cloudy
10:54 AM 72.5 °F 64.8 °F 77% 29.59 in 10.0 mi West 5.8 mph - N/A   Mostly Cloudy
11:13 AM 73.9 °F 65.1 °F 74% 29.58 in 10.0 mi WSW 6.9 mph - N/A   Mostly Cloudy
11:34 AM 75.0 °F 64.2 °F 69% 29.58 in 10.0 mi West 5.8 mph - N/A   Mostly Cloudy
11:53 AM 75.4 °F 64.9 °F 70% 29.58 in 10.0 mi West 9.2 mph - N/A   Mostly Cloudy
12:13 PM 75.0 °F 63.3 °F 67% 29.57 in 10.0 mi West 6.9 mph - N/A   Mostly Cloudy
12:33 PM 77.2 °F 62.2 °F 60% 29.57 in 10.0 mi WNW 8.1 mph - N/A   Mostly Cloudy
12:54 PM 77.4 °F 62.4 °F 60% 29.56 in 10.0 mi WNW 9.2 mph - N/A   Mostly Cloudy
1:13 PM 77.7 °F 62.2 °F 59% 29.56 in 10.0 mi West 12.7 mph 16.1 mph N/A   Mostly Cloudy
1:33 PM 76.5 °F 61.7 °F 60% 29.55 in 10.0 mi WNW 11.5 mph 16.1 mph N/A   Mostly Cloudy
1:53 PM 77.2 °F 60.1 °F 55% 29.55 in 10.0 mi NW 8.1 mph 17.3 mph N/A   Mostly Cloudy
2:13 PM 77.5 °F 61.7 °F 58% 29.55 in 10.0 mi NW 9.2 mph 17.3 mph N/A   Mostly Cloudy
2:33 PM 78.1 °F 60.6 °F 55% 29.55 in 10.0 mi WNW 10.4 mph 19.6 mph N/A   Scattered Clouds
2:54 PM 78.1 °F 60.4 °F 54% 29.55 in 10.0 mi WNW 9.2 mph 16.1 mph N/A   Scattered Clouds
3:13 PM 76.8 °F 59.5 °F 55% 29.54 in 10.0 mi NW 9.2 mph 17.3 mph N/A   Scattered Clouds
3:33 PM 75.2 °F 57.9 °F 55% 29.54 in 10.0 mi NW 10.4 mph 17.3 mph N/A   Scattered Clouds
3:53 PM 73.6 °F 57.2 °F 56% 29.54 in 10.0 mi WNW 8.1 mph - N/A   Clear
4:13 PM 72.9 °F 57.7 °F 59% 29.55 in 10.0 mi WNW 8.1 mph - N/A   Clear
4:33 PM 72.5 °F 58.1 °F 60% 29.56 in 10.0 mi WNW 8.1 mph - N/A   Scattered Clouds
4:54 PM 71.4 °F 60.8 °F 69% 29.56 in 10.0 mi WSW 5.8 mph - N/A   Mostly Cloudy
5:13 PM 67.8 °F 62.8 °F 84% 29.57 in 7.0 mi West 11.5 mph 17.3 mph 0.01 in Rain Rain
5:33 PM 65.3 °F 65.5 °F 100% 29.56 in 7.0 mi WNW 3.5 mph - 0.06 in Rain Rain
5:54 PM 67.6 °F 66.6 °F 96% 29.55 in 10.0 mi West 6.9 mph - 0.08 in   Mostly Cloudy
6:14 PM 68.9 °F 62.2 °F 79% 29.56 in 10.0 mi WNW 9.2 mph - N/A   Clear
6:33 PM 68.7 °F 62.4 °F 80% 29.55 in 10.0 mi West 9.2 mph - N/A   Scattered Clouds
6:54 PM 68.2 °F 63.0 °F 83% 29.55 in 10.0 mi West 9.2 mph - N/A   Scattered Clouds
7:14 PM 68.7 °F 63.5 °F 83% 29.57 in 10.0 mi West 8.1 mph - N/A   Clear
7:33 PM 68.5 °F 63.0 °F 82% 29.57 in 10.0 mi West 6.9 mph - N/A   Clear
7:54 PM 67.6 °F 63.7 °F 87% 29.58 in 10.0 mi West 5.8 mph - N/A   Scattered Clouds
8:13 PM 67.1 °F 64.4 °F 91% 29.58 in 10.0 mi WNW 5.8 mph - N/A   Scattered Clouds
8:34 PM 67.1 °F 64.6 °F 92% 29.58 in 10.0 mi West 4.6 mph - N/A   Scattered Clouds
8:53 PM 66.6 °F 66.7 °F 100% 29.59 in 10.0 mi West 4.6 mph - N/A   Clear
9:14 PM 66.2 °F 66.4 °F 100% 29.59 in 10.0 mi WSW 6.9 mph - N/A   Scattered Clouds
9:33 PM 66.6 °F 65.5 °F 96% 29.59 in 10.0 mi West 6.9 mph - N/A   Mostly Cloudy
9:54 PM 65.8 °F 63.1 °F 91% 29.58 in 10.0 mi West 3.5 mph - N/A Rain Light Rain
10:13 PM 65.3 °F 63.7 °F 94% 29.58 in 10.0 mi Calm Calm - N/A   Clear
10:33 PM 63.0 °F 63.1 °F 100% 29.58 in 10.0 mi Calm Calm - N/A   Clear
10:53 PM 63.1 °F 63.3 °F 100% 29.58 in 10.0 mi WSW 3.5 mph - N/A   Clear
11:14 PM - - N/A% 29.58 in 10.0 mi West 5.8 mph - N/A   Scattered Clouds
11:33 PM 63.5 °F 62.1 °F 95% 29.58 in 10.0 mi West 5.8 mph - N/A   Mostly Cloudy
11:53 PM 62.8 °F 61.3 °F 95% 29.58 in 10.0 mi West 5.8 mph - N/A   Mostly Cloudy